This is the latest recevied weather packets stored in our database for station/object DK7LH-6. If no packets are shown the sender has not sent any weather packets the latest 1 day(s).
| Time | Temp. | Humidity | Pressure | Rain* | Wind** | Luminosity | Snow |
|---|---|---|---|---|---|---|---|
| 1777989638 | 13.33° C | 79% | 1009.7 hPa | 0 mm | 0.45 m/s, 43° | 139 W/m² | - |
| 1777988770 | 13.33° C | 77% | 1009.8 hPa | 0 mm | 0.45 m/s, 45° | 131 W/m² | - |
| 1777987871 | 12.78° C | 78% | 1009.9 hPa | 0 mm | 0.45 m/s, 102° | 165 W/m² | - |
| 1777986941 | 13.33° C | 78% | 1009.9 hPa | 0 mm | 0.89 m/s, 91° | 217 W/m² | - |
| 1777986073 | 12.22° C | 79% | 1010 hPa | 0 mm | 1.34 m/s, 88° | 198 W/m² | - |
| 1777985143 | 12.22° C | 78% | 1010.2 hPa | 0 mm | 0.89 m/s, 103° | 201 W/m² | - |
| 1777984276 | 12.22° C | 79% | 1010.3 hPa | 0 mm | 0.89 m/s, 81° | 184 W/m² | - |
| 1777983346 | 12.22° C | 78% | 1010.3 hPa | 0 mm | 1.34 m/s, 81° | 216 W/m² | - |
| 1777982477 | 11.67° C | 79% | 1010.3 hPa | 0 mm | 0.89 m/s, 67° | 180 W/m² | - |
| 1777981547 | 11.67° C | 78% | 1010.3 hPa | 0 mm | 1.34 m/s, 353° | 208 W/m² | - |
| 1777980617 | 11.67° C | 79% | 1010.3 hPa | 0 mm | 0.89 m/s, 27° | 170 W/m² | - |
| 1777979749 | 11.11° C | 79% | 1010.5 hPa | 0 mm | 0.89 m/s, 40° | 164 W/m² | - |
| 1777978819 | 11.11° C | 80% | 1010.7 hPa | 0 mm | 0.45 m/s, 10° | 108 W/m² | - |
| 1777977951 | 10.56° C | 80% | 1010.8 hPa | 0 mm | 0.45 m/s, 42° | 106 W/m² | - |
| 1777977021 | 10.56° C | 80% | 1010.8 hPa | 0 mm | 0.45 m/s, 26° | 165 W/m² | - |
| 1777976153 | 10.56° C | 80% | 1010.8 hPa | 0 mm | 1.34 m/s, 11° | 172 W/m² | - |
| 1777975223 | 10.56° C | 81% | 1010.9 hPa | 0 mm | 1.79 m/s, 11° | 221 W/m² | - |
| 1777974356 | 10° C | 82% | 1010.9 hPa | 0 mm | 2.24 m/s, 12° | 213 W/m² | - |
| 1777973426 | 9.44° C | 83% | 1011 hPa | 0 mm | 2.24 m/s, 9° | 146 W/m² | - |
| 1777972557 | 9.44° C | 85% | 1011 hPa | 0 mm | 1.79 m/s, 21° | 126 W/m² | - |
| 1777971627 | 9.44° C | 87% | 1011 hPa | 0 mm | 0.45 m/s, 32° | 101 W/m² | - |
| 1777970759 | 8.89° C | 87% | 1011.1 hPa | 0 mm | 0.89 m/s, 36° | 68 W/m² | - |
| 1777969829 | 8.89° C | 86% | 1011.2 hPa | 0 mm | 0.45 m/s, 32° | 58 W/m² | - |
| 1777968962 | 8.89° C | 86% | 1011.2 hPa | 0 mm | 0.89 m/s, 43° | 45 W/m² | - |
| 1777968031 | 8.89° C | 87% | 1011.3 hPa | 0 mm | 0.45 m/s, 36° | 49 W/m² | - |
* Rain latest hour (hover to see other rain measurements)
** Current wind speed in m/s (hover to see current wind gust speed)